STW2401 URSS-UUEE

Flight info

Callsign STW2401
Flight time N/A
Altitude 38000
Route IRGID1T IRGID A944 BEMES R227 KZ DCT MOMER DCT GOLMA N50 OLOPI OLOPI3E
Aircraft B772/H-SDE2E3FGHIJ5LORVWXY/LB1D1

Departure

Time 2026-05-01 14:55
Airport Sochi International Airport (URSS)

Arrival

Time N/A
Airport Sheremetyevo International Airport (UUEE)
Time Latitude Longitude Altitude Speed Heading
2026-05-01 14:11 43.44897 39.94516 67 ft 0 kts 298°
2026-05-01 14:46 43.44890 39.94534 67 ft 2 kts 306°
2026-05-01 14:46 43.44880 39.94548 67 ft 2 kts 323°
2026-05-01 14:47 43.44867 39.94559 66 ft 2 kts 336°
2026-05-01 14:47 43.44853 39.94566 66 ft 2 kts 351°
2026-05-01 14:47 43.44838 39.94567 66 ft 2 kts
2026-05-01 14:48 43.44810 39.94555 65 ft 2 kts 34°
2026-05-01 14:48 43.44798 39.94542 65 ft 2 kts 48°
2026-05-01 14:48 43.44787 39.94517 65 ft 0 kts 65°
2026-05-01 14:49 43.44786 39.94517 65 ft 0 kts 65°
2026-05-01 14:50 43.44792 39.94534 65 ft 3 kts 65°
2026-05-01 14:50 43.44833 39.94696 66 ft 10 kts 109°
2026-05-01 14:51 43.44800 39.94745 65 ft 0 kts 149°
2026-05-01 14:51 43.44798 39.94747 65 ft 0 kts 149°
2026-05-01 14:52 43.44747 39.94783 64 ft 9 kts 149°
2026-05-01 14:52 43.44729 39.94868 64 ft 10 kts 65°
2026-05-01 14:52 43.44804 39.95084 67 ft 14 kts 65°
2026-05-01 14:53 43.44846 39.95208 69 ft 14 kts 65°
2026-05-01 14:53 43.44891 39.95340 72 ft 15 kts 65°
2026-05-01 14:53 43.44936 39.95474 73 ft 11 kts 65°
2026-05-01 14:53 43.44978 39.95537 75 ft 4 kts 74°
2026-05-01 14:54 43.44964 39.95549 75 ft 2 kts 202°
2026-05-01 14:54 43.44949 39.95510 74 ft 1 kts 245°
2026-05-01 14:55 43.44941 39.95488 74 ft 13 kts 245°
2026-05-01 14:55 43.44803 39.95083 67 ft 89 kts 245°
2026-05-01 14:55 43.44426 39.93983 71 ft 160 kts 244°
2026-05-01 14:55 43.43949 39.92623 842 ft 158 kts 246°
2026-05-01 14:56 43.43637 39.91109 1512 ft 168 kts 260°
2026-05-01 14:56 43.43385 39.89444 1891 ft 184 kts 260°
2026-05-01 14:56 43.43101 39.87658 2287 ft 200 kts 258°
2026-05-01 14:56 43.42775 39.85752 2796 ft 212 kts 258°
2026-05-01 14:57 43.42425 39.83725 3288 ft 226 kts 257°
2026-05-01 14:57 43.41641 39.79176 4173 ft 258 kts 256°
2026-05-01 14:57 43.41227 39.76781 4829 ft 264 kts 256°
2026-05-01 14:58 43.40797 39.74291 5551 ft 267 kts 256°
2026-05-01 14:58 43.40369 39.71821 6272 ft 270 kts 255°
2026-05-01 14:58 43.39934 39.69311 7001 ft 271 kts 255°
2026-05-01 14:58 43.39497 39.66787 7730 ft 272 kts 254°
2026-05-01 14:59 43.39059 39.64269 8405 ft 274 kts 254°
2026-05-01 14:59 43.38699 39.61665 9163 ft 275 kts 260°
2026-05-01 14:59 43.38508 39.59037 9918 ft 274 kts 261°
2026-05-01 14:59 43.38407 39.56391 10433 ft 284 kts 268°
2026-05-01 15:00 43.39344 39.50768 10958 ft 328 kts 291°
2026-05-01 15:00 43.40556 39.47998 11185 ft 350 kts 304°
2026-05-01 15:00 43.42320 39.45554 11513 ft 370 kts 318°
2026-05-01 15:01 43.44556 39.43717 11876 ft 389 kts 333°
2026-05-01 15:01 43.47197 39.42736 12592 ft 398 kts 349°
2026-05-01 15:01 43.50005 39.42583 13383 ft 404 kts
2026-05-01 15:01 43.52788 39.43154 14092 ft 413 kts 11°
2026-05-01 15:02 43.55539 39.44453 14749 ft 422 kts 20°
2026-05-01 15:02 43.57334 39.45473 15194 ft 426 kts 20°
2026-05-01 15:02 43.61073 39.47523 16174 ft 435 kts 19°
2026-05-01 15:02 43.63872 39.49054 16800 ft 445 kts 22°
2026-05-01 15:03 43.66620 39.51210 17513 ft 453 kts 33°
2026-05-01 15:03 43.69095 39.54011 18226 ft 459 kts 45°
2026-05-01 15:03 43.71195 39.57323 18895 ft 464 kts 55°
2026-05-01 15:03 43.72902 39.61125 19523 ft 469 kts 66°
2026-05-01 15:04 43.74140 39.65322 20147 ft 471 kts 76°
2026-05-01 15:04 43.74915 39.69736 20834 ft 473 kts 82°
2026-05-01 15:04 43.75570 39.74214 21583 ft 476 kts 83°
2026-05-01 15:04 43.76220 39.78689 22311 ft 479 kts 83°
2026-05-01 15:05 43.76878 39.83196 22977 ft 483 kts 83°
2026-05-01 15:05 43.77544 39.87743 23617 ft 487 kts 82°
2026-05-01 15:05 43.78217 39.92327 24211 ft 492 kts 83°
2026-05-01 15:05 43.78835 39.96989 24776 ft 497 kts 84°
2026-05-01 15:06 43.79441 40.01763 25413 ft 500 kts 84°
2026-05-01 15:06 43.80043 40.06503 26004 ft 504 kts 84°
2026-05-01 15:06 43.80647 40.11260 26574 ft 509 kts 84°
2026-05-01 15:06 43.81266 40.16129 27214 ft 512 kts 84°
2026-05-01 15:07 43.81878 40.20948 27826 ft 515 kts 84°
2026-05-01 15:07 43.82498 40.25846 28393 ft 518 kts 84°
2026-05-01 15:07 43.83123 40.30794 28955 ft 522 kts 84°
2026-05-01 15:07 43.83757 40.35815 29541 ft 525 kts 84°
2026-05-01 15:08 43.84378 40.40757 30136 ft 527 kts 83°
2026-05-01 15:08 43.85013 40.45823 30788 ft 527 kts 83°
2026-05-01 15:08 43.85644 40.50873 31569 ft 525 kts 83°
2026-05-01 15:08 43.86269 40.55895 32377 ft 522 kts 83°
2026-05-01 15:09 43.86891 40.60902 33099 ft 520 kts 83°
2026-05-01 15:09 43.87499 40.65824 33688 ft 521 kts 84°
2026-05-01 15:09 43.88071 40.70805 34186 ft 521 kts 87°
2026-05-01 15:09 43.88357 40.75748 34727 ft 521 kts 90°
2026-05-01 15:10 43.88583 40.80776 35242 ft 520 kts 90°
2026-05-01 15:10 43.89017 40.90770 36312 ft 515 kts 90°
2026-05-01 15:10 43.89228 40.95692 36825 ft 512 kts 90°
2026-05-01 15:11 43.89437 41.00612 37327 ft 510 kts 90°
2026-05-01 15:11 43.89847 41.10413 37929 ft 512 kts 90°
2026-05-01 15:12 43.90251 41.20249 37940 ft 512 kts 90°
2026-05-01 15:12 43.90843 41.35046 37946 ft 513 kts 90°
2026-05-01 15:14 43.91784 41.59630 37944 ft 510 kts 90°
2026-05-01 15:14 43.92303 41.74428 37945 ft 510 kts 90°
2026-05-01 15:15 43.92960 41.94004 37919 ft 510 kts 90°
2026-05-01 15:16 43.93589 42.13730 37958 ft 511 kts 90°
2026-05-01 15:18 43.94329 42.38392 37972 ft 510 kts 91°
2026-05-01 15:19 43.94879 42.58026 37968 ft 509 kts 90°
2026-05-01 15:19 43.95092 42.72832 37972 ft 507 kts 93°
2026-05-01 15:20 43.95134 42.87500 37996 ft 507 kts 93°
2026-05-01 15:21 43.95159 42.97224 38005 ft 506 kts 93°
2026-05-01 15:21 43.95179 43.07047 38008 ft 507 kts 93°
2026-05-01 15:22 43.95196 43.21719 37996 ft 507 kts 93°
2026-05-01 15:22 43.95198 43.31556 38005 ft 505 kts 93°
2026-05-01 15:23 43.95191 43.41328 37996 ft 506 kts 93°
2026-05-01 15:23 43.95177 43.51096 37985 ft 505 kts 93°
2026-05-01 15:24 43.95154 43.60880 37990 ft 508 kts 93°
2026-05-01 15:24 43.95123 43.70744 37973 ft 505 kts 94°
2026-05-01 15:25 43.95084 43.80517 37965 ft 506 kts 94°
2026-05-01 15:25 43.95036 43.90284 37965 ft 506 kts 94°
2026-05-01 15:26 43.94981 44.00046 37958 ft 505 kts 94°
2026-05-01 15:26 43.94917 44.09810 37956 ft 507 kts 94°
2026-05-01 15:27 43.94844 44.19550 37957 ft 506 kts 93°
2026-05-01 15:28 43.94719 44.34314 37960 ft 508 kts 93°
2026-05-01 15:28 43.94626 44.44071 37964 ft 507 kts 93°
2026-05-01 15:29 43.94471 44.58740 37969 ft 507 kts 94°
2026-05-01 15:30 43.94234 44.78278 37960 ft 507 kts 94°
2026-05-01 15:31 43.93816 45.07632 37956 ft 508 kts 94°
2026-05-01 15:32 43.93496 45.27160 37961 ft 508 kts 94°
2026-05-01 15:34 43.92954 45.56434 37964 ft 506 kts 94°